Flag for Germany Weather past 2 weeks in Frankfurt, Hesse, Germany

Now
59 °F

Light rain. Mostly cloudy.


Feels Like: 57 °F
Forecast: 58 / 74 °F
Wind: 10 mph from South

Location: Frankfurt-M-Flughafen Airport

Current Time: Jun 2, 2015 at 9:41:51 AM

Latest Report: Jun 2, 2015 at 9:20 AM


Visibility: N/A

Pressure: 30.01 "Hg

Humidity: 88%

Dew point: 55 °F

Location of FrankfurtLocation

Historic Weather in Frankfurt — Graph

°F

Frankfurt temperature yesterday

Maximum temperature yesterday: 64 °F (at 12:20 AM)
Minimum temperature yesterday: 50 °F (at 11:20 PM)
Average temperature yesterday: 57 °F

Past Weeks' High & Low Weather Summary

 TemperatureHumidityPressure
High73 °F (May 18, 3:20 PM)100% (Jun 2, 12:50 AM)30.33 "Hg (Jun 2, 12:50 AM)
Low39 °F (May 22, 4:50 AM)23% (May 18, 3:20 PM)29.68 "Hg (May 18, 7:20 PM)
Average57 °F62%30.02 "Hg
* Reported May 18 8:20 AM — Jun 2 8:20 AM, Frankfurt, Weather by CustomWeather, © 2015

Note: Actual official high and low records may vary slightly from our data, if they occured in-between our weather recording intervals... More about our weather records

Advertising

Frankfurt weather history for previous 24 hours

 ConditionsComfort  
Time TempWeatherWind HumidityBarometerVisibility
8:20 AM
Tue, Jun 2
55 °FLight rain. More clouds than sun.7 mph94%30.01 "HgN/A
7:50 AM54 °FMore clouds than sun.6 mph94%30.01 "HgN/A
7:20 AM54 °FBroken clouds.1 mph94%30.01 "HgN/A
6:50 AM50 °FBroken clouds.1 mph100%30.01 "HgN/A
6:20 AM48 °FPartly sunny.1 mph100%30.01 "HgN/A
5:20 AM46 °FFog.1 mph100%30.01 "HgN/A
4:50 AM46 °FFog.No wind100%30.01 "HgN/A
4:20 AM48 °FFog.1 mph94%30.01 "HgN/A
3:50 AM46 °FPassing clouds.2 mph100%30.01 "HgN/A
3:20 AM46 °FFog.No wind100%30.01 "HgN/A
2:50 AM48 °FFog.1 mph94%30.01 "HgN/A
2:20 AM48 °FFog.2 mph94%30.01 "HgN/A
1:50 AM48 °FClear.3 mph94%30.04 "Hg10 mi
1:20 AM50 °FClear.7 mph94%30.04 "Hg10 mi
12:50 AM48 °FClear.5 mph100%30.01 "Hg10 mi
12:20 AM50 °FPassing clouds.6 mph88%30.01 "HgN/A
11:50 PM
Mon, Jun 1
50 °FPassing clouds.6 mph94%30.04 "HgN/A
11:20 PM50 °FFog.6 mph94%30.01 "HgN/A
10:50 PM52 °FPassing clouds.7 mph88%30.01 "HgN/A
10:20 PM52 °FPassing clouds.5 mph94%30.01 "HgN/A
9:50 PM55 °FScattered clouds.7 mph82%30.01 "HgN/A
9:20 PM55 °FPartly sunny.7 mph88%30.01 "HgN/A
8:50 PM57 °FPartly sunny.1 mph88%30.01 "HgN/A
8:20 PM57 °FPartly sunny.5 mph88%30.01 "HgN/A
7:50 PM57 °FPartly sunny.7 mph88%30.01 "HgN/A
7:20 PM59 °FBroken clouds.6 mph82%30.04 "HgN/A
6:50 PM59 °FPartly sunny.5 mph82%30.04 "HgN/A
6:20 PM57 °FPartly sunny.7 mph88%30.04 "HgN/A
5:50 PM57 °FPartly sunny.5 mph82%30.04 "HgN/A
5:20 PM57 °FPartly sunny.8 mph88%30.04 "HgN/A
4:50 PM57 °FBroken clouds.7 mph82%30.07 "HgN/A
4:20 PM57 °FBroken clouds.8 mph88%30.07 "HgN/A
3:50 PM55 °FBroken clouds.7 mph88%30.07 "HgN/A
3:20 PM55 °FLight rain. Broken clouds.8 mph88%30.07 "HgN/A
2:50 PM55 °FPartly sunny.8 mph88%30.07 "HgN/A
2:20 PM55 °FBroken clouds.9 mph94%30.04 "HgN/A
1:50 PM57 °FLight rain. Partly sunny.6 mph94%30.04 "HgN/A
1:20 PM57 °FLight rain. Broken clouds.6 mph88%30.04 "HgN/A
12:50 PM57 °FLight rain. Partly sunny.7 mph88%30.04 "HgN/A
12:20 PM57 °FLight rain. Partly sunny.6 mph88%30.04 "HgN/A
11:50 AM55 °FLight rain. Partly sunny.6 mph94%30.04 "HgN/A
11:20 AM55 °FLight rain. Partly sunny.8 mph94%30.04 "Hg5 mi
10:50 AM55 °FRain. Partly sunny.6 mph94%30.04 "Hg2 mi
10:20 AM55 °FRain. Partly sunny.6 mph94%30.04 "Hg4 mi
9:50 AM55 °FLight rain. Broken clouds.5 mph94%30.01 "Hg6 mi
9:20 AM55 °FLight rain. Broken clouds.3 mph94%30.01 "Hg6 mi
Weather by CustomWeather, © 2015

See weather overviewHow to use our weather pages